Regional Weather Roundup
Issued by NWS

Home | Current Version | Previous Version | Text Only | Print | Product List | Glossary Off
Versions: 1 2 3 4 5 6 7 8 9 10 11 12 13 14 15 16 17 18 19 20 21 22 23 24 25 26

640
ASUS45 KTFX 212110
RWRMT
MONTANA REGIONAL WEATHER ROUNDUP
NATIONAL WEATHER SERVICE GREAT FALLS MT
300 PM MDT THU MAY 21 2015

NOTE: "FAIR" INDICATES FEW OR NO CLOUDS BELOW 12000 FEET WITH NO
SIGNIFICANT WEATHER AND/OR OBSTRUCTIONS TO VISIBILITY.

MTZ001>007-043-212200-
WEST OF THE DIVIDE

CITY           SKY/WX    TMP DP  RH WIND       PRES   REMARKS
KALISPELL      CLEAR     76  29  17 VRB3      29.89F
MISSOULA       MOSUNNY   74  34  23 MISG      29.87F
BUTTE          PTSUNNY   60  37  42 SE17G25   29.98F
MULLAN PASS    CLOUDY    58  37  45 CALM      29.99F
DEER LODGE       N/A     64  37  36 E12       29.98F
EUREKA           N/A     77  30  18 N3        29.89F
HAMILTON         N/A     63  46  55 SE20      29.90S
LIBBY            N/A     75  34  22 NW5       29.87F
RONAN            N/A     73  37  26 N8        29.95F
THOMPSON FALLS   N/A     79  36  21 NE6       29.89F
$$

MTZ008-052>055-212200-
SOUTHWEST MONTANA

CITY           SKY/WX    TMP DP  RH WIND       PRES   REMARKS
BOZEMAN        LGT RAIN  61  46  57 E7        29.98F
DILLON         HVY RAIN  52  41  66 SE15G25   29.97S VSB 3/4
W YELLOWSTONE  CLOUDY    48  39  71 S9        30.06R
THREE FORKS      N/A     68  47  46 E6        29.96F
TWIN BRIDGES     N/A     65  35  32 E8        29.96F
$$

MTZ009-010-012-014-046-048-049-054-212200-
EAST SLOPES AND CENTRAL MONTANA

CITY           SKY/WX    TMP DP  RH WIND       PRES   REMARKS
CUT BANK       SUNNY     65  26  23 VRB5      30.01F
GREAT FALLS    SUNNY     68  36  30 NE8       29.98F
MALMSTROM AFB  SUNNY     67  37  33 NE5       29.98F
HELENA         MOSUNNY   69  39  33 SE9       29.95F
CONRAD           N/A     68  32  26 E7        30.03F
$$

MTZ011-013-016-021-045-047-050-051-212200-
NORTH CENTRAL MONTANA

CITY           SKY/WX    TMP DP  RH WIND       PRES   REMARKS
HAVRE          SUNNY     71  26  18 SE18G29   30.02F
LEWISTOWN      SUNNY     67  36  31 SE15G25   30.03F
N BAR RANCH    FAIR      61  30  31 E12G22    30.09F
CHINOOK          N/A     70  27  19 E17G24    30.05F
FORT BENTON      N/A     70  39  32 E9G18     29.99F
$$

MTZ017>020-022>027-061-062-212200-
NORTHEAST MONTANA

CITY           SKY/WX    TMP DP  RH WIND       PRES   REMARKS
GLASGOW        SUNNY     71  29  21 SE17G28   30.11F
JORDAN           N/A     70  26  19 SE20G29   30.09F
SIDNEY         SUNNY     73  36  25 SE7G17    30.15F
WOLF POINT     SUNNY     73  32  22 S8G17     30.13F
MALTA            N/A     70  31  23 E18       30.05F
PLENTYWOOD       N/A     73  28  19 W3        30.14F
POPLAR           N/A     72  28  20 SE14G20   30.14F
$$

MTZ028>42-056>058-212200-
SOUTHCENTRAL AND SOUTHEAST MONTANA

CITY           SKY/WX    TMP DP  RH WIND       PRES   REMARKS
BAKER          SUNNY     69  32  25 SE14      30.16F
BILLINGS       MOSUNNY   67  36  31 E14G21    30.04F
LIVINGSTON     PTSUNNY   64  42  44 E20G29    29.99F
MILES CITY     SUNNY     70  23  17 SE18G26   30.10F
BIG TIMBER       N/A     63  43  48 E13       30.03F
EKALAKA          N/A     65  27  24 E18       30.12F
FORSYTH          N/A     68  27  21 SE16G24   30.08F
LAUREL           N/A     65  35  32 E9        30.02F
ROUNDUP          N/A     67  32  27 SE8       29.96F
$$

REGIONAL REPORTS...DAKOTAS

CITY           SKY/WX    TMP DP  RH WIND       PRES   REMARKS
WILLISTON      SUNNY     75  31  19 S12       30.14F
MINOT          SUNNY     73  33  23 VRB3      30.13F
DICKINSON      SUNNY     69  30  23 VRB5      30.15F
BEACH          FAIR      66  30  26 SE13G23   30.16F
CROSBY         MOCLDY    73  27  17 S7        30.14F
WATFORD CITY   FAIR      72  28  20 SE7       30.12F
BISMARCK       SUNNY     74  29  19 CALM      30.13F
GRAND FORKS    SUNNY     67  37  33 N9        30.13S
FARGO          SUNNY     69  38  32 NW9       30.12F
BUFFALO SD       N/A     67  29  24 SE18G29   30.10F
RAPID CITY     SUNNY     62  34  35 S15       30.19F
$$

REGIONAL REPORTS...WYOMING/IDAHO/WASHINGTON

CITY           SKY/WX    TMP DP  RH WIND       PRES   REMARKS
GILLETTE       MOSUNNY   55  40  56 SE16      30.13F
SHERIDAN       MOSUNNY   62  41  46 SE15G22   30.07F
BUFFALO WY     CLOUDY    56  41  57 SE15      30.11F
CODY           MOSUNNY   59  43  55 NE3       30.04F
YELLOWSTONE LA   N/A     51  32  48 VRB3      30.09F
IDAHO FALLS    PTSUNNY   66  41  40 NE13      29.95F
SALMON         PTSUNNY   59  45  58 NE6       29.94F
BOISE          CLOUDY    66  48  52 N6        29.85F
SPOKANE        MOSUNNY   78  41  26 VRB5      29.85F
$$

REGIONAL REPORTS...ALBERTA

CITY           SKY/WX    TMP DP  RH WIND       PRES   REMARKS
EDMONTON       SUNNY     73  30  20 SE16      29.98F
CALGARY        MOSUNNY   70  27  19 S14G23    30.00F
LETHBRIDGE     MOSUNNY   70  32  24 S15       29.99F
MEDICINE HAT   SUNNY     73  25  16 SE10G20   30.01F
$$

REGIONAL REPORTS...SASKATCHEWAN

CITY           SKY/WX    TMP DP  RH WIND       PRES   REMARKS
SWIFT CURRENT  SUNNY     72  27  18 S22G31    30.10
REGINA         MOSUNNY   73  27  17 SE5       30.13F
SASKATOON      SUNNY     75  27  16 SW8       30.12F
$$



USA.gov is the U.S. government's official web portal to all federal, state and local government web resources and services.